sat.trackr.live / text

‹ back to catalog

STARLINK-37007

NORAD 68302 · 2026-057J

PAYLOAD ACTIVE UNKNOWN

§ Identity

Operator
Country
US
Launch date
2026-03-20
Launch site
AFWTR
Launch vehicle
Mass (kg)
RCS (m²)

Purposes: comms

External: N2YO · Heavens-Above · Gunter

§ Orbital elements

Epoch: 2026-09-19T15:43:32.625408Z

Period
93.91 min
Inclination
97.2867°
Eccentricity
0.0002616
Mean motion
15.33396097 rev/d
Perigee alt
463.9 km
Apogee alt
467.5 km
Semi-major
6,843.8 km
B*
5.5647e-4
RAAN
28.0591°
Arg perigee
89.0002°
Mean anomaly
271.1540°
Rev number
2,838

§ Raw data

STARLINK-370071 68302U 26057J   26262.65523872  .00017906  00000+0  55647-3 0  99972 68302  97.2867  28.0591 0002616  89.0002 271.1540 15.33396097 28386

JSON: /api/v1/satellites/68302 · /tle

For live sub-satellite position, see the globe view (requires WebGL).

§ Visibility from observer

Set your observer location to see the next 7 days of passes ≥ 10°. The values pass through the URL so the page stays shareable.

No JS? Fill the form by hand. The geolocation button needs JavaScript.